Change the Weather History Date:

Tuesday, February 14, 2012

  Actual Average Record
Temperature  
Mean Temperature 35 °F -  
Max Temperature 42 °F 45 °F 93 °F (2009)
Min Temperature 28 °F 26 °F 10 °F (1981)
Degree Days  
Heating Degree Days 30    
Moisture  
Dew Point 32 °F    
Average Humidity 92    
Maximum Humidity 100    
Minimum Humidity 66    
Precipitation  
Precipitation 0.00 in - - ()
Sea Level Pressure  
Sea Level Pressure 29.94 in    
Wind  
Wind Speed 6 mph (SW)    
Max Wind Speed 12 mph    
Max Gust Speed -    
Visibility 9 miles    
Events Snow    
Averages and records for this station are not official NWS values.
T = Trace of Precipitation, MM = Missing Value Source: NWS Daily Summary

Daily Weather History Graph

Daily Weather History Graph

Search for Another Location

Airport or City:

Trip Planner

Search our weather history database for the weather conditions in past years. The results will help you decide how hot, cold, wet, or windy it might be!

Date:

Astronomy

Feb. 14, 2012 Rise Set
Actual Time 6:51 AM CST 5:35 PM CST
Civil Twilight 6:24 AM CST 6:02 PM CST
Nautical Twilight 5:53 AM CST 6:34 PM CST
Astronomical Twilight 5:22 AM CST 7:04 PM CST
Moon 12:35 AM CST (2/14) 10:42 AM CST (2/14)
Length of Visible Light 11h 38m
Length of Day
10h 43m
Waning Gibbous, 50% of the Moon is Illuminated
Feb 14
Waning Gibbous
Feb 21
New
Feb 29
First Quarter
Mar 8
Full
Mar 14
Last Quarter

Hourly Weather History & Observations

Time (CST) Temp. Windchill Dew Point Humidity Pressure Visibility Wind Dir Wind Speed Gust Speed Precip Events Conditions
12:07 AM 32.0 °F 24.8 °F 32.0 °F 100% 29.89 in 10.0 mi South 8.1 mph - N/A Snow Light Snow
12:51 AM 32.0 °F 25.6 °F 32.0 °F 100% 29.88 in 10.0 mi South 6.9 mph - N/A   Overcast
12:55 AM 31.6 °F 25.1 °F 31.5 °F 99% 29.88 in 10.0 mi South 6.9 mph - 0.00 in   Overcast
1:55 AM 31.8 °F 24.6 °F 31.5 °F 99% 29.87 in 10.0 mi SSW 8.1 mph - N/A   Overcast
2:43 AM 32.0 °F 24.8 °F 32.0 °F 100% 29.86 in 10.0 mi SSW 8.1 mph - N/A   Overcast
2:55 AM 31.8 °F 25.4 °F 31.6 °F 99% 29.86 in 10.0 mi SSW 6.9 mph - N/A   Overcast
3:55 AM 32.0 °F 26.4 °F 31.8 °F 99% 29.86 in 10.0 mi SSW 5.8 mph - N/A   Overcast
4:01 AM 32.0 °F 26.4 °F 32.0 °F 100% 29.86 in 10.0 mi SW 5.8 mph - N/A   Overcast
4:14 AM 32.0 °F 26.4 °F 32.0 °F 100% 29.87 in 8.0 mi SSW 5.8 mph - N/A   Overcast
4:24 AM 32.0 °F 26.4 °F 32.0 °F 100% 29.87 in 8.0 mi SSW 5.8 mph - N/A   Overcast
4:31 AM 32.0 °F 25.6 °F 32.0 °F 100% 29.87 in 7.0 mi SSW 6.9 mph - N/A   Overcast
4:55 AM 32.2 °F 26.7 °F 32.0 °F 99% 29.88 in 7.0 mi SSW 5.8 mph - N/A   Overcast
5:00 AM 32.0 °F 27.5 °F 32.0 °F 100% 29.88 in 8.0 mi SSW 4.6 mph - N/A   Overcast
5:06 AM 32.0 °F 26.4 °F 32.0 °F 100% 29.88 in 8.0 mi SW 5.8 mph - N/A   Overcast
5:25 AM 32.0 °F 26.4 °F 32.0 °F 100% 29.89 in 6.0 mi SW 5.8 mph - N/A   Overcast
5:41 AM 32.0 °F 28.7 °F 32.0 °F 100% 29.89 in 6.0 mi SW 3.5 mph - N/A   Overcast
5:55 AM 32.0 °F - 31.8 °F 99% 29.89 in 6.0 mi Calm Calm - N/A   Overcast
6:04 AM 32.0 °F 28.7 °F 32.0 °F 100% 29.89 in 9.0 mi SW 3.5 mph - N/A   Overcast
6:10 AM 32.0 °F 28.7 °F 32.0 °F 100% 29.90 in 9.0 mi SW 3.5 mph - N/A   Overcast
6:17 AM 32.0 °F 28.7 °F 32.0 °F 100% 29.90 in 9.0 mi SW 3.5 mph - N/A   Overcast
6:37 AM 32.0 °F 28.7 °F 32.0 °F 100% 29.90 in 10.0 mi SW 3.5 mph - N/A   Overcast
6:55 AM 31.8 °F - 31.6 °F 99% 29.90 in 10.0 mi Calm Calm - N/A   Overcast
7:43 AM 32.0 °F - 32.0 °F 100% 29.92 in 10.0 mi Calm Calm - N/A   Overcast
7:55 AM 32.4 °F - 32.0 °F 99% 29.92 in 10.0 mi Calm Calm - N/A   Overcast
8:05 AM 32.0 °F 28.7 °F 32.0 °F 100% 29.93 in 10.0 mi SW 3.5 mph - N/A   Overcast
8:55 AM 33.3 °F 27.9 °F 33.1 °F 99% 29.95 in 10.0 mi WSW 5.8 mph - N/A   Overcast
9:55 AM 35.6 °F 29.2 °F 35.1 °F 98% 29.96 in 10.0 mi West 8.1 mph - N/A   Overcast
10:22 AM 37.4 °F 31.4 °F 35.6 °F 93% 29.97 in 10.0 mi West 8.1 mph - N/A   Overcast
10:55 AM 37.4 °F 29.8 °F 34.7 °F 90% 29.98 in 10.0 mi West 11.5 mph - N/A   Overcast
11:55 AM 38.5 °F 33.4 °F 35.4 °F 89% 29.97 in 10.0 mi West 6.9 mph - N/A   Overcast
12:55 PM 39.6 °F 34.7 °F 35.1 °F 84% 29.96 in 10.0 mi West 6.9 mph - N/A   Overcast
12:58 PM 41.0 °F 35.2 °F 35.6 °F 81% 29.96 in 10.0 mi WNW 9.2 mph - N/A   Overcast
1:55 PM 42.8 °F 37.5 °F 35.2 °F 75% 29.96 in 10.0 mi West 9.2 mph - N/A   Scattered Clouds
1:56 PM 42.8 °F 38.0 °F 33.8 °F 70% 29.96 in 10.0 mi West 8.1 mph - N/A   Mostly Cloudy
2:42 PM 41.0 °F 35.8 °F 32.0 °F 70% 29.98 in 10.0 mi WSW 8.1 mph - N/A   Scattered Clouds
2:55 PM 41.7 °F 36.1 °F 33.1 °F 71% 29.98 in 10.0 mi SW 9.2 mph - N/A   Scattered Clouds
3:06 PM 41.0 °F 38.0 °F 32.0 °F 70% 29.98 in 10.0 mi WSW 4.6 mph - N/A   Mostly Cloudy
3:55 PM 41.7 °F 35.6 °F 32.2 °F 69% 30.00 in 10.0 mi SW 10.4 mph - N/A   Overcast
4:19 PM 42.8 °F 39.3 °F 32.0 °F 66% 30.00 in 10.0 mi WSW 5.8 mph - N/A   Scattered Clouds
4:55 PM 41.5 °F 39.6 °F 32.0 °F 69% 30.00 in 10.0 mi WSW 3.5 mph - N/A   Clear
5:55 PM 39.2 °F - 31.8 °F 75% 30.01 in 10.0 mi Calm Calm - N/A   Clear
6:55 PM 32.7 °F 28.3 °F 30.9 °F 93% 30.03 in 10.0 mi ESE 4.6 mph - N/A   Clear
7:55 PM 28.9 °F - 28.2 °F 97% 30.04 in 10.0 mi Calm Calm - N/A   Mostly Cloudy
8:55 PM 33.6 °F 27.5 °F 31.6 °F 92% 30.05 in 10.0 mi SSE 6.9 mph - N/A   Mostly Cloudy
9:55 PM 31.8 °F 25.4 °F 30.9 °F 96% 30.06 in 10.0 mi SSE 6.9 mph - N/A   Clear
10:55 PM 32.7 °F 26.4 °F 31.5 °F 95% 30.05 in 10.0 mi SE 6.9 mph - N/A   Partly Cloudy
11:55 PM 31.5 °F 25.8 °F 30.9 °F 98% 30.06 in 10.0 mi SE 5.8 mph - N/A   Mostly Cloudy